• In India
  • List of Countries
  • For 7 days
  • Water Temperature
  • Satellite Maps
  • Weather Map
  • Weather Widgets
  • user-avatar
    Login

    Hourly Weather Polichna

    Today, 24 September, Monday

    Time Temperature Precipitation Wind Pressure Humidity
    00:00 +14°C° 1.5 mm 7 mps 726 mmHg 76%
    01:00 +13°C° 1.5 mm 5 mps 725 mmHg 84%
    02:00 +12°C° 1.7 mm 7 mps 726 mmHg 84%
    03:00 +12°C° 1.7 mm 9 mps 727 mmHg 84%
    04:00 +12°C° 1.7 mm 11 mps 727 mmHg 83%
    05:00 +9°C° 0.1 mm 10 mps 729 mmHg 82%
    06:00 +8°C° 0.1 mm 9 mps 731 mmHg 81%
    07:00 +7°C° 0.1 mm 8 mps 732 mmHg 79%
    08:00 +7°C° 0.1 mm 8 mps 733 mmHg 77%
    09:00 +8°C° 0.1 mm 9 mps 734 mmHg 74%
    10:00 +8°C° 0.1 mm 9 mps 735 mmHg 71%
    11:00 +8°C° 0.3 mm 9 mps 736 mmHg 70%
    12:00 +8°C° 0.3 mm 9 mps 736 mmHg 69%
    13:00 +8°C° 0.3 mm 10 mps 737 mmHg 67%
    14:00 +8°C° 0.1 mm 9 mps 737 mmHg 65%
    15:00 +8°C° 0.1 mm 9 mps 737 mmHg 62%
    16:00 +8°C° 0.1 mm 9 mps 738 mmHg 60%
    17:00 +7°C° 0 mm 8 mps 738 mmHg 63%
    18:00 +8°C° 0 mm 7 mps 738 mmHg 65%
    19:00 +7°C° 0 mm 6 mps 739 mmHg 67%
    20:00 +7°C° 0.1 mm 6 mps 739 mmHg 70%
    21:00 +5°C° 0.1 mm 6 mps 739 mmHg 73%
    22:00 +5°C° 0.1 mm 6 mps 740 mmHg 75%
    23:00 +5°C° 0.2 mm 6 mps 740 mmHg 78%

    Tomorrow, 25 September, Tuesday

    Time Temperature Precipitation Wind Pressure Humidity
    00:00 +5°C° 0.2 mm 6 mps 741 mmHg 80%
    01:00 +5°C° 0.2 mm 6 mps 742 mmHg 82%
    02:00 +4°C° 0 mm 6 mps 742 mmHg 83%
    03:00 +5°C° 0 mm 5 mps 743 mmHg 84%
    04:00 +3°C° 0 mm 5 mps 744 mmHg 84%
    05:00 +3°C° 0 mm 5 mps 744 mmHg 82%
    06:00 +4°C° 0 mm 6 mps 745 mmHg 80%
    07:00 +4°C° 0 mm 6 mps 746 mmHg 77%
    08:00 +5°C° 0.1 mm 6 mps 746 mmHg 69%
    09:00 +8°C° 0.1 mm 7 mps 747 mmHg 61%
    10:00 +9°C° 0.1 mm 7 mps 747 mmHg 52%
    11:00 +9°C° 0.1 mm 7 mps 747 mmHg 51%
    12:00 +10°C° 0.1 mm 7 mps 747 mmHg 49%
    13:00 +10°C° 0.1 mm 7 mps 748 mmHg 48%
    14:00 +10°C° 0.1 mm 7 mps 748 mmHg 49%
    15:00 +9°C° 0.1 mm 6 mps 748 mmHg 50%
    16:00 +9°C° 0.1 mm 6 mps 749 mmHg 51%
    17:00 +8°C° 0 mm 5 mps 749 mmHg 54%
    18:00 +7°C° 0 mm 4 mps 749 mmHg 57%
    19:00 +7°C° 0 mm 3 mps 750 mmHg 60%
    20:00 +5°C° 0 mm 3 mps 750 mmHg 63%
    21:00 +5°C° 0 mm 3 mps 751 mmHg 66%
    22:00 +4°C° 0 mm 3 mps 751 mmHg 69%
    23:00 +4°C° 0 mm 3 mps 751 mmHg 72%

    Day after tomorrow, 26 September, Wednesday

    Time Temperature Precipitation Wind Pressure Humidity
    00:00 +4°C° 0 mm 2 mps 752 mmHg 75%
    01:00 +4°C° 0 mm 2 mps 752 mmHg 78%
    02:00 +3°C° 0 mm 2 mps 752 mmHg 78%
    03:00 +3°C° 0 mm 2 mps 752 mmHg 79%
    04:00 +3°C° 0 mm 2 mps 752 mmHg 80%
    05:00 +3°C° 0 mm 2 mps 752 mmHg 77%
    06:00 +4°C° 0 mm 2 mps 752 mmHg 74%
    07:00 +5°C° 0 mm 2 mps 752 mmHg 71%
    08:00 +7°C° 0 mm 2 mps 752 mmHg 63%
    09:00 +9°C° 0 mm 3 mps 752 mmHg 55%
    10:00 +10°C° 0 mm 3 mps 752 mmHg 47%
    11:00 +11°C° 0 mm 4 mps 751 mmHg 46%
    12:00 +12°C° 0 mm 4 mps 751 mmHg 44%
    13:00 +13°C° 0 mm 4 mps 750 mmHg 43%
    14:00 +13°C° 0 mm 4 mps 750 mmHg 45%
    15:00 +13°C° 0 mm 4 mps 749 mmHg 48%
    16:00 +12°C° 0 mm 3 mps 748 mmHg 50%
    17:00 +11°C° 0 mm 3 mps 748 mmHg 52%
    18:00 +10°C° 0 mm 3 mps 748 mmHg 54%
    19:00 +8°C° 0 mm 4 mps 747 mmHg 57%
    20:00 +10°C° 0 mm 4 mps 747 mmHg 55%
    21:00 +10°C° 0 mm 4 mps 747 mmHg 54%
    22:00 +9°C° 0 mm 5 mps 747 mmHg 53%
    23:00 +10°C° 0 mm 5 mps 747 mmHg 53%

    27 September, Thursday

    Time Temperature Precipitation Wind Pressure Humidity
    00:00 +10°C° 0 mm 5 mps 746 mmHg 53%
    01:00 +10°C° 0 mm 5 mps 746 mmHg 53%
    02:00 +10°C° 0 mm 5 mps 745 mmHg 51%
    03:00 +10°C° 0 mm 6 mps 745 mmHg 49%
    04:00 +10°C° 0 mm 6 mps 745 mmHg 47%
    05:00 +10°C° 0 mm 6 mps 745 mmHg 48%
    06:00 +10°C° 0 mm 6 mps 744 mmHg 49%
    07:00 +10°C° 0 mm 6 mps 744 mmHg 50%
    08:00 +11°C° 0 mm 6 mps 744 mmHg 49%
    09:00 +14°C° 0 mm 7 mps 744 mmHg 49%
    10:00 +15°C° 0 mm 7 mps 744 mmHg 49%
    11:00 +16°C° 0 mm 7 mps 744 mmHg 50%
    12:00 +17°C° 0 mm 7 mps 744 mmHg 51%
    13:00 +20°C° 0 mm 6 mps 744 mmHg 52%
    14:00 +20°C° 0 mm 6 mps 743 mmHg 55%
    15:00 +19°C° 0 mm 5 mps 743 mmHg 58%
    16:00 +19°C° 0 mm 4 mps 743 mmHg 61%
    17:00 +18°C° 0 mm 4 mps 742 mmHg 66%
    18:00 +16°C° 0 mm 3 mps 742 mmHg 71%
    19:00 +14°C° 0 mm 3 mps 742 mmHg 77%
    20:00 +13°C° 0 mm 3 mps 742 mmHg 77%
    21:00 +13°C° 0 mm 3 mps 742 mmHg 77%
    22:00 +12°C° 0 mm 3 mps 742 mmHg 77%
    23:00 +12°C° 0 mm 4 mps 741 mmHg 74%

    28 September, Friday

    Time Temperature Precipitation Wind Pressure Humidity
    00:00 +12°C° 0 mm 4 mps 741 mmHg 72%
    01:00 +12°C° 0 mm 4 mps 741 mmHg 69%
    02:00 +12°C° 0 mm 4 mps 740 mmHg 68%
    03:00 +11°C° 0 mm 4 mps 740 mmHg 68%
    04:00 +11°C° 0 mm 4 mps 740 mmHg 67%
    05:00 +12°C° 0 mm 4 mps 740 mmHg 66%
    06:00 +12°C° 0 mm 4 mps 739 mmHg 65%
    07:00 +12°C° 0 mm 4 mps 739 mmHg 64%
    08:00 +13°C° 0 mm 4 mps 740 mmHg 63%
    09:00 +14°C° 0 mm 4 mps 740 mmHg 63%
    10:00 +15°C° 0 mm 4 mps 740 mmHg 62%
    11:00 +16°C° 0 mm 3 mps 740 mmHg 65%
    12:00 +16°C° 0 mm 3 mps 740 mmHg 67%
    13:00 +16°C° 0 mm 3 mps 740 mmHg 69%
    14:00 +16°C° 0 mm 3 mps 740 mmHg 72%
    15:00 +14°C° 0 mm 3 mps 741 mmHg 74%
    16:00 +13°C° 0 mm 3 mps 741 mmHg 77%
    17:00 +13°C° 0 mm 3 mps 741 mmHg 76%
    18:00 +13°C° 0 mm 2 mps 741 mmHg 75%
    19:00 +13°C° 0 mm 2 mps 742 mmHg 74%
    20:00 +12°C° 0 mm 2 mps 742 mmHg 74%
    21:00 +12°C° 0 mm 2 mps 743 mmHg 74%
    22:00 +12°C° 0 mm 2 mps 743 mmHg 74%
    23:00 +10°C° 0 mm 2 mps 743 mmHg 74%

    29 September, Saturday

    Time Temperature Precipitation Wind Pressure Humidity
    00:00 +10°C° 0 mm 2 mps 743 mmHg 74%
    01:00 +9°C° 0 mm 2 mps 744 mmHg 75%
    02:00 +9°C° 0 mm 2 mps 744 mmHg 75%
    03:00 +8°C° 0 mm 2 mps 744 mmHg 76%
    04:00 +7°C° 0 mm 3 mps 744 mmHg 76%
    05:00 +8°C° 0 mm 3 mps 745 mmHg 75%
    06:00 +8°C° 0 mm 3 mps 745 mmHg 73%
    07:00 +8°C° 0 mm 3 mps 746 mmHg 72%
    08:00 +9°C° 0 mm 3 mps 746 mmHg 65%
    09:00 +11°C° 0 mm 3 mps 747 mmHg 58%
    10:00 +12°C° 0 mm 3 mps 747 mmHg 51%
    11:00 +13°C° 0 mm 3 mps 747 mmHg 47%
    12:00 +14°C° 0 mm 3 mps 747 mmHg 43%
    13:00 +14°C° 0 mm 3 mps 747 mmHg 39%
    14:00 +14°C° 0 mm 3 mps 747 mmHg 41%
    15:00 +13°C° 0 mm 3 mps 747 mmHg 43%
    16:00 +13°C° 0 mm 3 mps 746 mmHg 45%
    17:00 +11°C° 0 mm 3 mps 747 mmHg 50%
    18:00 +10°C° 0 mm 3 mps 747 mmHg 55%
    19:00 +8°C° 0 mm 3 mps 747 mmHg 59%
    20:00 +8°C° 0 mm 3 mps 747 mmHg 62%
    21:00 +7°C° 0 mm 3 mps 747 mmHg 64%
    22:00 +7°C° 0 mm 3 mps 747 mmHg 67%
    23:00 +7°C° 0 mm 3 mps 747 mmHg 68%
    Show more